Location: Hylvaty SDH
(49.9612°N, 16.4057°E)
Time: 12:44:25
(UTC+01:00)

Tiros 1 - Pass Details

Date: 08 October 2020
Orbit: 630 x 663 km, 48.4° (Epoch: 28 October)

Event Time Altitude Azimuth Distance (km) Brightness Sun altitude
Rises 12:47:22 0° 237° (WSW) 2,924 10.9 33.9°
Reaches altitude 10° 12:49:44 10° 232° (SW) 2,022 10.3 33.9°
Maximum altitude 12:54:13 48° 158° (SSE) 843 9.3 33.8°
Drops below altitude 10° 12:58:44 10° 85° (E) 2,048 9.7 33.8°
Sets 13:01:09 0° 80° (E) 2,966 10.4 33.7°
